Year,Month,Day,Hour,Minute,Value (Times are PST for temperature in C)
2016,06,15,00,00,8.10
2016,06,15,00,01,8.10
2016,06,15,00,02,8.10
2016,06,15,00,03,8.10
2016,06,15,00,04,8.10
2016,06,15,00,05,8.10
2016,06,15,00,06,8.10
2016,06,15,00,07,8.10
2016,06,15,00,08,8.10
2016,06,15,00,09,8.20
2016,06,15,00,10,8.20
2016,06,15,00,11,8.20
2016,06,15,00,12,8.20
2016,06,15,00,13,8.20
2016,06,15,00,14,8.20
2016,06,15,00,15,8.20
2016,06,15,00,16,8.20
2016,06,15,00,17,8.20
2016,06,15,00,18,8.20
2016,06,15,00,19,8.20
2016,06,15,00,20,8.20
2016,06,15,00,21,8.20
2016,06,15,00,22,8.20
2016,06,15,00,23,8.20
2016,06,15,00,24,8.20
2016,06,15,00,25,8.20
2016,06,15,00,26,8.20
2016,06,15,00,27,8.20
2016,06,15,00,28,8.20
2016,06,15,00,29,8.20
2016,06,15,00,30,8.20
2016,06,15,00,31,8.20
2016,06,15,00,32,8.20
2016,06,15,00,33,8.20
2016,06,15,00,34,8.20
2016,06,15,00,35,8.10
2016,06,15,00,36,8.10
2016,06,15,00,37,8.10
2016,06,15,00,38,8.10
2016,06,15,00,39,8.10
2016,06,15,00,40,8.10
2016,06,15,00,41,8.10
2016,06,15,00,42,8.10
2016,06,15,00,43,8.10
2016,06,15,00,44,8.10
2016,06,15,00,45,8.10
2016,06,15,00,46,8.10
2016,06,15,00,47,8.00
2016,06,15,00,48,8.00
2016,06,15,00,49,8.00
2016,06,15,00,50,8.00
2016,06,15,00,51,8.00
2016,06,15,00,52,8.00
2016,06,15,00,53,8.00
2016,06,15,00,54,8.00
2016,06,15,00,55,8.00
2016,06,15,00,56,8.00
2016,06,15,00,57,8.00
2016,06,15,00,58,8.00
2016,06,15,00,59,8.00
2016,06,15,01,00,8.00
2016,06,15,01,01,8.00
2016,06,15,01,02,8.00
2016,06,15,01,03,8.00
2016,06,15,01,04,8.00
2016,06,15,01,05,8.00
2016,06,15,01,06,8.00
2016,06,15,01,07,8.00
2016,06,15,01,08,8.00
2016,06,15,01,09,8.00
2016,06,15,01,10,8.00
2016,06,15,01,11,8.00
2016,06,15,01,12,8.00
2016,06,15,01,13,8.00
2016,06,15,01,14,8.00
2016,06,15,01,15,8.00
2016,06,15,01,16,8.00
2016,06,15,01,17,8.10
2016,06,15,01,18,8.10
2016,06,15,01,19,8.10
2016,06,15,01,20,8.10
2016,06,15,01,21,8.10
2016,06,15,01,22,8.10
2016,06,15,01,23,8.10
2016,06,15,01,24,8.20
2016,06,15,01,25,8.20
2016,06,15,01,26,8.20
2016,06,15,01,27,8.20
2016,06,15,01,28,8.20
2016,06,15,01,29,8.20
2016,06,15,01,30,8.20
2016,06,15,01,31,8.30
2016,06,15,01,32,8.30
2016,06,15,01,33,8.30
2016,06,15,01,34,8.30
2016,06,15,01,35,8.30
2016,06,15,01,36,8.30
2016,06,15,01,37,8.30
2016,06,15,01,38,8.30
2016,06,15,01,39,8.40
2016,06,15,01,40,8.40
2016,06,15,01,41,8.40
2016,06,15,01,42,8.40
2016,06,15,01,43,8.40
2016,06,15,01,44,8.40
2016,06,15,01,45,8.40
2016,06,15,01,46,8.40
2016,06,15,01,47,8.40
2016,06,15,01,48,8.40
2016,06,15,01,49,8.40
2016,06,15,01,50,8.50
2016,06,15,01,51,8.50
2016,06,15,01,52,8.50
2016,06,15,01,53,8.50
2016,06,15,01,54,8.50
2016,06,15,01,55,8.50
2016,06,15,01,56,8.50
2016,06,15,01,57,8.50
2016,06,15,01,58,8.50
2016,06,15,01,59,8.50
2016,06,15,02,00,8.40
2016,06,15,02,01,8.50
2016,06,15,02,02,8.40
2016,06,15,02,03,8.40
2016,06,15,02,04,8.40
2016,06,15,02,05,8.40
2016,06,15,02,06,8.40
2016,06,15,02,07,8.40
2016,06,15,02,08,8.40
2016,06,15,02,09,8.40
2016,06,15,02,10,8.40
2016,06,15,02,11,8.40
2016,06,15,02,12,8.40
2016,06,15,02,13,8.40
2016,06,15,02,14,8.40
2016,06,15,02,15,8.40
2016,06,15,02,16,8.40
2016,06,15,02,17,8.40
2016,06,15,02,18,8.40
2016,06,15,02,19,8.40
2016,06,15,02,20,8.40
2016,06,15,02,21,8.40
2016,06,15,02,22,8.40
2016,06,15,02,23,8.40
2016,06,15,02,24,8.40
2016,06,15,02,25,8.40
2016,06,15,02,26,8.40
2016,06,15,02,27,8.40
2016,06,15,02,28,8.30
2016,06,15,02,29,8.30
2016,06,15,02,30,8.30
2016,06,15,02,31,8.30
2016,06,15,02,32,8.30
2016,06,15,02,33,8.30
2016,06,15,02,34,8.30
2016,06,15,02,35,8.30
2016,06,15,02,36,8.30
2016,06,15,02,37,8.30
2016,06,15,02,38,8.30
2016,06,15,02,39,8.20
2016,06,15,02,40,8.20
2016,06,15,02,41,8.20
2016,06,15,02,42,8.20
2016,06,15,02,43,8.20
2016,06,15,02,44,8.20
2016,06,15,02,45,8.20
2016,06,15,02,46,8.10
2016,06,15,02,47,8.10
2016,06,15,02,48,8.10
2016,06,15,02,49,8.10
2016,06,15,02,50,8.10
2016,06,15,02,51,8.10
2016,06,15,02,52,8.10
2016,06,15,02,53,8.10
2016,06,15,02,54,8.10
2016,06,15,02,55,8.00
2016,06,15,02,56,8.00
2016,06,15,02,57,8.00
2016,06,15,02,58,8.00
2016,06,15,02,59,8.00
2016,06,15,03,00,8.00
2016,06,15,03,01,8.00
2016,06,15,03,02,7.90
2016,06,15,03,03,7.90
2016,06,15,03,04,7.90
2016,06,15,03,05,7.90
2016,06,15,03,06,7.90
2016,06,15,03,07,7.90
2016,06,15,03,08,7.90
2016,06,15,03,09,7.90
2016,06,15,03,10,7.90
2016,06,15,03,11,7.80
2016,06,15,03,12,7.80
2016,06,15,03,13,7.80
2016,06,15,03,14,7.80
2016,06,15,03,15,7.80
2016,06,15,03,16,7.80
2016,06,15,03,17,7.80
2016,06,15,03,18,7.80
2016,06,15,03,19,7.80
2016,06,15,03,20,7.80
2016,06,15,03,21,7.70
2016,06,15,03,22,7.70
2016,06,15,03,23,7.70
2016,06,15,03,24,7.70
2016,06,15,03,25,7.70
2016,06,15,03,26,7.70
2016,06,15,03,27,7.70
2016,06,15,03,28,7.70
2016,06,15,03,29,7.70
2016,06,15,03,30,7.70
2016,06,15,03,31,7.70
2016,06,15,03,32,7.70
2016,06,15,03,33,7.70
2016,06,15,03,34,7.70
2016,06,15,03,35,7.70
2016,06,15,03,36,7.70
2016,06,15,03,37,7.70
2016,06,15,03,38,7.70
2016,06,15,03,39,7.70
2016,06,15,03,40,7.70
2016,06,15,03,41,7.70
2016,06,15,03,42,7.70
2016,06,15,03,43,7.70
2016,06,15,03,44,7.70
2016,06,15,03,45,7.60
2016,06,15,03,46,7.60
2016,06,15,03,47,7.60
2016,06,15,03,48,7.60
2016,06,15,03,49,7.60
2016,06,15,03,50,7.60
2016,06,15,03,51,7.60
2016,06,15,03,52,7.60
2016,06,15,03,53,7.60
2016,06,15,03,54,7.60
2016,06,15,03,55,7.60
2016,06,15,03,56,7.60
2016,06,15,03,57,7.60
2016,06,15,03,58,7.60
2016,06,15,03,59,7.60
2016,06,15,04,00,7.60
2016,06,15,04,01,7.60
2016,06,15,04,02,7.50
2016,06,15,04,03,7.50
2016,06,15,04,04,7.50
2016,06,15,04,05,7.50
2016,06,15,04,06,7.40
2016,06,15,04,07,7.40
2016,06,15,04,08,7.40
2016,06,15,04,09,7.40
2016,06,15,04,10,7.40
2016,06,15,04,11,7.40
2016,06,15,04,12,7.40
2016,06,15,04,13,7.30
2016,06,15,04,14,7.30
2016,06,15,04,15,7.30
2016,06,15,04,16,7.30
2016,06,15,04,17,7.30
2016,06,15,04,18,7.30
2016,06,15,04,19,7.30
2016,06,15,04,20,7.30
2016,06,15,04,21,7.30
2016,06,15,04,22,7.30
2016,06,15,04,23,7.30
2016,06,15,04,24,7.30
2016,06,15,04,25,7.30
2016,06,15,04,26,7.30
2016,06,15,04,27,7.30
2016,06,15,04,28,7.30
2016,06,15,04,29,7.30
2016,06,15,04,30,7.30
2016,06,15,04,31,7.30
2016,06,15,04,32,7.30
2016,06,15,04,33,7.30
2016,06,15,04,34,7.30
2016,06,15,04,35,7.30
2016,06,15,04,36,7.30
2016,06,15,04,37,7.30
2016,06,15,04,38,7.30
2016,06,15,04,39,7.30
2016,06,15,04,40,7.30
2016,06,15,04,41,7.30
2016,06,15,04,42,7.30
2016,06,15,04,43,7.30
2016,06,15,04,44,7.30
2016,06,15,04,45,7.30
2016,06,15,04,46,7.30
2016,06,15,04,47,7.30
2016,06,15,04,48,7.30
2016,06,15,04,49,7.30
2016,06,15,04,50,7.30
2016,06,15,04,51,7.30
2016,06,15,04,52,7.40
2016,06,15,04,53,7.40
2016,06,15,04,54,7.30
2016,06,15,04,55,7.30
2016,06,15,04,56,7.30
2016,06,15,04,57,7.30
2016,06,15,04,58,7.30
2016,06,15,04,59,7.30
2016,06,15,05,00,7.30
2016,06,15,05,01,7.30
2016,06,15,05,02,7.30
2016,06,15,05,03,7.30
2016,06,15,05,04,7.30
2016,06,15,05,05,7.30
2016,06,15,05,06,7.30
2016,06,15,05,07,7.30
2016,06,15,05,08,7.30
2016,06,15,05,09,7.30
2016,06,15,05,10,7.20
2016,06,15,05,11,7.20
2016,06,15,05,12,7.20
2016,06,15,05,13,7.20
2016,06,15,05,14,7.20
2016,06,15,05,15,7.20
2016,06,15,05,16,7.20
2016,06,15,05,17,7.20
2016,06,15,05,18,7.20
2016,06,15,05,19,7.20
2016,06,15,05,20,7.20
2016,06,15,05,21,7.20
2016,06,15,05,22,7.20
2016,06,15,05,23,7.20
2016,06,15,05,24,7.20
2016,06,15,05,25,7.20
2016,06,15,05,26,7.20
2016,06,15,05,27,7.30
2016,06,15,05,28,7.30
2016,06,15,05,29,7.30
2016,06,15,05,30,7.30
2016,06,15,05,31,7.30
2016,06,15,05,32,7.30
2016,06,15,05,33,7.30
2016,06,15,05,34,7.30
2016,06,15,05,35,7.30
2016,06,15,05,36,7.30
2016,06,15,05,37,7.30
2016,06,15,05,38,7.30
2016,06,15,05,39,7.30
2016,06,15,05,40,7.40
2016,06,15,05,41,7.40
2016,06,15,05,42,7.40
2016,06,15,05,43,7.40
2016,06,15,05,44,7.40
2016,06,15,05,45,7.40
2016,06,15,05,46,7.40
2016,06,15,05,47,7.40
2016,06,15,05,48,7.40
2016,06,15,05,49,7.40
2016,06,15,05,50,7.40
2016,06,15,05,51,7.40
2016,06,15,05,52,7.40
2016,06,15,05,53,7.40
2016,06,15,05,54,7.40
2016,06,15,05,55,7.40
2016,06,15,05,56,7.40
2016,06,15,05,57,7.40
2016,06,15,05,58,7.40
2016,06,15,05,59,7.40
2016,06,15,06,00,7.40
2016,06,15,06,01,7.40
2016,06,15,06,02,7.40
2016,06,15,06,03,7.40
2016,06,15,06,04,7.30
2016,06,15,06,05,7.30
2016,06,15,06,06,7.30
2016,06,15,06,07,7.30
2016,06,15,06,08,7.30
2016,06,15,06,09,7.30
2016,06,15,06,10,7.30
2016,06,15,06,11,7.40
2016,06,15,06,12,7.40
2016,06,15,06,13,7.40
2016,06,15,06,14,7.40
2016,06,15,06,15,7.40
2016,06,15,06,16,7.40
2016,06,15,06,17,7.40
2016,06,15,06,18,7.40
2016,06,15,06,19,7.40
2016,06,15,06,20,7.40
2016,06,15,06,21,7.40
2016,06,15,06,22,7.40
2016,06,15,06,23,7.40
2016,06,15,06,24,7.50
2016,06,15,06,25,7.50
2016,06,15,06,26,7.50
2016,06,15,06,27,7.50
2016,06,15,06,28,7.50
2016,06,15,06,29,7.50
2016,06,15,06,30,7.50
2016,06,15,06,31,7.50
2016,06,15,06,32,7.50
2016,06,15,06,33,7.50
2016,06,15,06,34,7.60
2016,06,15,06,35,7.60
2016,06,15,06,36,7.60
2016,06,15,06,37,7.60
2016,06,15,06,38,7.60
2016,06,15,06,39,7.60
2016,06,15,06,40,7.60
2016,06,15,06,41,7.60
2016,06,15,06,42,7.60
2016,06,15,06,43,7.60
2016,06,15,06,44,7.60
2016,06,15,06,45,7.60
2016,06,15,06,46,7.60
2016,06,15,06,47,7.60
2016,06,15,06,48,7.70
2016,06,15,06,49,7.70
2016,06,15,06,50,7.70
2016,06,15,06,51,7.70
2016,06,15,06,52,7.70
2016,06,15,06,53,7.70
2016,06,15,06,54,7.70
2016,06,15,06,55,7.70
2016,06,15,06,56,7.70
2016,06,15,06,57,7.70
2016,06,15,06,58,7.70
2016,06,15,06,59,7.70
2016,06,15,07,00,7.70
2016,06,15,07,01,7.70
2016,06,15,07,02,7.70
2016,06,15,07,03,7.70
2016,06,15,07,04,7.70
2016,06,15,07,05,7.70
2016,06,15,07,06,7.80
2016,06,15,07,07,7.80
2016,06,15,07,08,7.80
2016,06,15,07,09,7.80
2016,06,15,07,10,7.80
2016,06,15,07,11,7.80
2016,06,15,07,12,7.80
2016,06,15,07,13,7.80
2016,06,15,07,14,7.80
2016,06,15,07,15,7.80
2016,06,15,07,16,7.80
2016,06,15,07,17,7.80
2016,06,15,07,18,7.80
2016,06,15,07,19,7.80
2016,06,15,07,20,7.80
2016,06,15,07,21,7.80
2016,06,15,07,22,7.90
2016,06,15,07,23,7.90
2016,06,15,07,24,7.90
2016,06,15,07,25,7.90
2016,06,15,07,26,7.90
2016,06,15,07,27,7.90
2016,06,15,07,28,7.90
2016,06,15,07,29,7.90
2016,06,15,07,30,8.00
2016,06,15,07,31,8.00
2016,06,15,07,32,8.00
2016,06,15,07,33,8.10
2016,06,15,07,34,8.10
2016,06,15,07,35,8.10
2016,06,15,07,36,8.10
2016,06,15,07,37,8.10
2016,06,15,07,38,8.20
2016,06,15,07,39,8.20
2016,06,15,07,40,8.20
2016,06,15,07,41,8.30
2016,06,15,07,42,8.30
2016,06,15,07,43,8.30
2016,06,15,07,44,8.40
2016,06,15,07,45,8.40
2016,06,15,07,46,8.40
2016,06,15,07,47,8.40
2016,06,15,07,48,8.50
2016,06,15,07,49,8.50
2016,06,15,07,50,8.60
2016,06,15,07,51,8.70
2016,06,15,07,52,8.70
2016,06,15,07,53,8.80
2016,06,15,07,54,8.80
2016,06,15,07,55,8.90
2016,06,15,07,56,9.00
2016,06,15,07,57,9.10
2016,06,15,07,58,9.10
2016,06,15,07,59,9.20
2016,06,15,08,00,9.30
2016,06,15,08,01,9.40
2016,06,15,08,02,9.40
2016,06,15,08,03,9.50
2016,06,15,08,04,9.60
2016,06,15,08,05,9.60
2016,06,15,08,06,9.60
2016,06,15,08,07,9.60
2016,06,15,08,08,9.60
2016,06,15,08,09,9.60
2016,06,15,08,10,9.60
2016,06,15,08,11,9.60
2016,06,15,08,12,9.60
2016,06,15,08,13,9.60
2016,06,15,08,14,9.50
2016,06,15,08,15,9.50
2016,06,15,08,16,9.50
2016,06,15,08,17,9.50
2016,06,15,08,18,9.50
2016,06,15,08,19,9.60
2016,06,15,08,20,9.60
2016,06,15,08,21,9.70
2016,06,15,08,22,9.70
2016,06,15,08,23,9.80
2016,06,15,08,24,9.80
2016,06,15,08,25,9.90
2016,06,15,08,26,10.00
2016,06,15,08,27,10.00
2016,06,15,08,28,10.00
2016,06,15,08,29,10.10
2016,06,15,08,30,10.10
2016,06,15,08,31,10.10
2016,06,15,08,32,10.10
2016,06,15,08,33,10.10
2016,06,15,08,34,10.10
2016,06,15,08,35,10.10
2016,06,15,08,36,10.00
2016,06,15,08,37,10.00
2016,06,15,08,38,10.00
2016,06,15,08,39,10.00
2016,06,15,08,40,10.00
2016,06,15,08,41,10.00
2016,06,15,08,42,10.00
2016,06,15,08,43,10.00
2016,06,15,08,44,10.00
2016,06,15,08,45,10.00
2016,06,15,08,46,10.00
2016,06,15,08,47,10.00
2016,06,15,08,48,10.10
2016,06,15,08,49,10.10
2016,06,15,08,50,10.10
2016,06,15,08,51,10.10
2016,06,15,08,52,10.10
2016,06,15,08,53,10.10
2016,06,15,08,54,10.10
2016,06,15,08,55,10.20
2016,06,15,08,56,10.30
2016,06,15,08,57,10.30
2016,06,15,08,58,10.40
2016,06,15,08,59,10.50
2016,06,15,09,00,10.50
2016,06,15,09,01,10.50
2016,06,15,09,02,10.50
2016,06,15,09,03,10.60
2016,06,15,09,04,10.60
2016,06,15,09,05,10.60
2016,06,15,09,06,10.70
2016,06,15,09,07,10.70
2016,06,15,09,08,10.70
2016,06,15,09,09,10.80
2016,06,15,09,10,10.80
2016,06,15,09,11,10.90
2016,06,15,09,12,10.90
2016,06,15,09,13,11.00
2016,06,15,09,14,11.00
2016,06,15,09,15,11.10
2016,06,15,09,16,11.20
2016,06,15,09,17,11.10
2016,06,15,09,18,11.00
2016,06,15,09,19,11.00
2016,06,15,09,20,11.10
2016,06,15,09,21,11.00
2016,06,15,09,22,11.00
2016,06,15,09,23,11.00
2016,06,15,09,24,11.10
2016,06,15,09,25,11.20
2016,06,15,09,26,11.20
2016,06,15,09,27,11.10
2016,06,15,09,28,11.20
2016,06,15,09,29,11.10
2016,06,15,09,30,11.10
2016,06,15,09,31,11.10
2016,06,15,09,32,11.10
2016,06,15,09,33,11.10
2016,06,15,09,34,11.10
2016,06,15,09,35,11.10
2016,06,15,09,36,11.10
2016,06,15,09,37,11.20
2016,06,15,09,38,11.20
2016,06,15,09,39,11.30
2016,06,15,09,40,11.40
2016,06,15,09,41,11.40
2016,06,15,09,42,11.50
2016,06,15,09,43,11.50
2016,06,15,09,44,11.60
2016,06,15,09,45,11.70
2016,06,15,09,46,11.80
2016,06,15,09,47,11.80
2016,06,15,09,48,11.80
2016,06,15,09,49,11.60
2016,06,15,09,50,11.60
2016,06,15,09,51,11.50
2016,06,15,09,52,11.40
2016,06,15,09,53,11.50
2016,06,15,09,54,11.50
2016,06,15,09,55,11.60
2016,06,15,09,56,11.60
2016,06,15,09,57,11.60
2016,06,15,09,58,11.60
2016,06,15,09,59,11.50
2016,06,15,10,00,11.50
2016,06,15,10,01,11.50
2016,06,15,10,02,11.50
2016,06,15,10,03,11.60
2016,06,15,10,04,11.60
2016,06,15,10,05,11.60
2016,06,15,10,06,11.70
2016,06,15,10,07,11.70
2016,06,15,10,08,11.80
2016,06,15,10,09,11.90
2016,06,15,10,10,12.00
2016,06,15,10,11,12.00
2016,06,15,10,12,12.00
2016,06,15,10,13,12.00
2016,06,15,10,14,12.00
2016,06,15,10,15,12.10
2016,06,15,10,16,12.10
2016,06,15,10,17,12.20
2016,06,15,10,18,12.30
2016,06,15,10,19,12.20
2016,06,15,10,20,12.20
2016,06,15,10,21,12.20
2016,06,15,10,22,12.20
2016,06,15,10,23,12.30
2016,06,15,10,24,12.40
2016,06,15,10,25,12.50
2016,06,15,10,26,12.50
2016,06,15,10,27,12.60
2016,06,15,10,28,12.60
2016,06,15,10,29,12.60
2016,06,15,10,30,12.60
2016,06,15,10,31,12.60
2016,06,15,10,32,12.70
2016,06,15,10,33,12.70
2016,06,15,10,34,12.80
2016,06,15,10,35,12.80
2016,06,15,10,36,12.80
2016,06,15,10,37,12.80
2016,06,15,10,38,12.80
2016,06,15,10,39,12.80
2016,06,15,10,40,12.80
2016,06,15,10,41,12.80
2016,06,15,10,42,12.80
2016,06,15,10,43,12.80
2016,06,15,10,44,12.90
2016,06,15,10,45,12.90
2016,06,15,10,46,12.90
2016,06,15,10,47,12.90
2016,06,15,10,48,12.90
2016,06,15,10,49,12.90
2016,06,15,10,50,12.90
2016,06,15,10,51,13.00
2016,06,15,10,52,13.00
2016,06,15,10,53,13.00
2016,06,15,10,54,13.10
2016,06,15,10,55,13.10
2016,06,15,10,56,13.00
2016,06,15,10,57,13.00
2016,06,15,10,58,12.90
2016,06,15,10,59,12.80
2016,06,15,11,00,12.80
2016,06,15,11,01,12.70
2016,06,15,11,02,12.60
2016,06,15,11,03,12.50
2016,06,15,11,04,12.40
2016,06,15,11,05,12.40
2016,06,15,11,06,12.40
2016,06,15,11,07,12.40
2016,06,15,11,08,12.30
2016,06,15,11,09,12.30
2016,06,15,11,10,12.30
2016,06,15,11,11,12.30
2016,06,15,11,12,12.40
2016,06,15,11,13,12.40
2016,06,15,11,14,12.40
2016,06,15,11,15,12.40
2016,06,15,11,16,12.40
2016,06,15,11,17,12.50
2016,06,15,11,18,12.60
2016,06,15,11,19,12.70
2016,06,15,11,20,12.70
2016,06,15,11,21,12.80
2016,06,15,11,22,12.90
2016,06,15,11,23,13.00
2016,06,15,11,24,13.00
2016,06,15,11,25,13.10
2016,06,15,11,26,13.20
2016,06,15,11,27,13.30
2016,06,15,11,28,13.30
2016,06,15,11,29,13.30
2016,06,15,11,30,13.20
2016,06,15,11,31,13.20
2016,06,15,11,32,13.20
2016,06,15,11,33,13.10
2016,06,15,11,34,13.00
2016,06,15,11,35,13.00
2016,06,15,11,36,13.00
2016,06,15,11,37,13.00
2016,06,15,11,38,12.90
2016,06,15,11,39,12.90
2016,06,15,11,40,12.90
2016,06,15,11,41,12.80
2016,06,15,11,42,12.80
2016,06,15,11,43,12.70
2016,06,15,11,44,12.60
2016,06,15,11,45,12.50
2016,06,15,11,46,12.40
2016,06,15,11,47,12.40
2016,06,15,11,48,12.40
2016,06,15,11,49,12.40
2016,06,15,11,50,12.40
2016,06,15,11,51,12.30
2016,06,15,11,52,12.40
2016,06,15,11,53,12.40
2016,06,15,11,54,12.40
2016,06,15,11,55,12.40
2016,06,15,11,56,12.40
2016,06,15,11,57,12.50
2016,06,15,11,58,12.50
2016,06,15,11,59,12.50
2016,06,15,12,00,12.60
2016,06,15,12,01,12.60
2016,06,15,12,02,12.60
2016,06,15,12,03,12.50
2016,06,15,12,04,12.50
2016,06,15,12,05,12.40
2016,06,15,12,06,12.50
2016,06,15,12,07,12.60
2016,06,15,12,08,12.70
2016,06,15,12,09,12.80
2016,06,15,12,10,12.90
2016,06,15,12,11,13.00
2016,06,15,12,12,13.10
2016,06,15,12,13,13.20
2016,06,15,12,14,13.40
2016,06,15,12,15,13.50
2016,06,15,12,16,13.60
2016,06,15,12,17,13.80
2016,06,15,12,18,13.80
2016,06,15,12,19,13.80
2016,06,15,12,20,13.80
2016,06,15,12,21,13.80
2016,06,15,12,22,13.90
2016,06,15,12,23,14.00
2016,06,15,12,24,14.10
2016,06,15,12,25,14.10
2016,06,15,12,26,14.10
2016,06,15,12,27,14.10
2016,06,15,12,28,14.10
2016,06,15,12,29,14.00
2016,06,15,12,30,14.00
2016,06,15,12,31,13.90
2016,06,15,12,32,13.80
2016,06,15,12,33,13.80
2016,06,15,12,34,13.80
2016,06,15,12,35,13.80
2016,06,15,12,36,13.90
2016,06,15,12,37,14.00
2016,06,15,12,38,14.10
2016,06,15,12,39,14.20
2016,06,15,12,40,14.20
2016,06,15,12,41,14.20
2016,06,15,12,42,14.20
2016,06,15,12,43,14.30
2016,06,15,12,44,14.30
2016,06,15,12,45,14.30
2016,06,15,12,46,14.40
2016,06,15,12,47,14.40
2016,06,15,12,48,14.40
2016,06,15,12,49,14.50
2016,06,15,12,50,14.60
2016,06,15,12,51,14.60
2016,06,15,12,52,14.50
2016,06,15,12,53,14.50
2016,06,15,12,54,14.40
2016,06,15,12,55,14.40
2016,06,15,12,56,14.30
2016,06,15,12,57,14.30
2016,06,15,12,58,14.30
2016,06,15,12,59,14.30
2016,06,15,13,00,14.30
2016,06,15,13,01,14.30
2016,06,15,13,02,14.30
2016,06,15,13,03,14.30
2016,06,15,13,04,14.30
2016,06,15,13,05,14.30
2016,06,15,13,06,14.20
2016,06,15,13,07,14.20
2016,06,15,13,08,14.10
2016,06,15,13,09,14.10
2016,06,15,13,10,14.10
2016,06,15,13,11,14.10
2016,06,15,13,12,14.10
2016,06,15,13,13,14.10
2016,06,15,13,14,14.00
2016,06,15,13,15,13.90
2016,06,15,13,16,13.90
2016,06,15,13,17,13.80
2016,06,15,13,18,13.70
2016,06,15,13,19,13.60
2016,06,15,13,20,13.50
2016,06,15,13,21,13.40
2016,06,15,13,22,13.40
2016,06,15,13,23,13.30
2016,06,15,13,24,13.30
2016,06,15,13,25,13.20
2016,06,15,13,26,13.10
2016,06,15,13,27,13.00
2016,06,15,13,28,12.80
2016,06,15,13,29,12.80
2016,06,15,13,30,12.70
2016,06,15,13,31,12.60
2016,06,15,13,32,12.50
2016,06,15,13,33,12.40
2016,06,15,13,34,12.40
2016,06,15,13,35,12.40
2016,06,15,13,36,12.30
2016,06,15,13,37,12.20
2016,06,15,13,38,12.20
2016,06,15,13,39,12.20
2016,06,15,13,40,12.20
2016,06,15,13,41,12.10
2016,06,15,13,42,12.10
2016,06,15,13,43,12.10
2016,06,15,13,44,12.10
2016,06,15,13,45,12.00
2016,06,15,13,46,11.90
2016,06,15,13,47,11.80
2016,06,15,13,48,11.80
2016,06,15,13,49,11.70
2016,06,15,13,50,11.70
2016,06,15,13,51,11.70
2016,06,15,13,52,11.70
2016,06,15,13,53,11.70
2016,06,15,13,54,11.70
2016,06,15,13,55,11.70
2016,06,15,13,56,11.70
2016,06,15,13,57,11.60
2016,06,15,13,58,11.60
2016,06,15,13,59,11.70
2016,06,15,14,00,11.70
2016,06,15,14,01,11.70
2016,06,15,14,02,11.70
2016,06,15,14,03,11.70
2016,06,15,14,04,11.70
2016,06,15,14,05,11.70
2016,06,15,14,06,11.80
2016,06,15,14,07,11.80
2016,06,15,14,08,11.90
2016,06,15,14,09,12.00
2016,06,15,14,10,12.10
2016,06,15,14,11,12.20
2016,06,15,14,12,12.20
2016,06,15,14,13,12.30
2016,06,15,14,14,12.40
2016,06,15,14,15,12.40
2016,06,15,14,16,12.50
2016,06,15,14,17,12.60
2016,06,15,14,18,12.70
2016,06,15,14,19,12.70
2016,06,15,14,20,12.90
2016,06,15,14,21,13.00
2016,06,15,14,22,13.10
2016,06,15,14,23,13.20
2016,06,15,14,24,13.20
2016,06,15,14,25,13.30
2016,06,15,14,26,13.40
2016,06,15,14,27,13.60
2016,06,15,14,28,13.70
2016,06,15,14,29,13.80
2016,06,15,14,30,13.90
2016,06,15,14,31,14.00
2016,06,15,14,32,14.10
2016,06,15,14,33,14.10
2016,06,15,14,34,14.20
2016,06,15,14,35,14.20
2016,06,15,14,36,14.20
2016,06,15,14,37,14.20
2016,06,15,14,38,14.20
2016,06,15,14,39,14.30
2016,06,15,14,40,14.40
2016,06,15,14,41,14.40
2016,06,15,14,42,14.50
2016,06,15,14,43,14.40
2016,06,15,14,44,14.40
2016,06,15,14,45,14.40
2016,06,15,14,46,14.40
2016,06,15,14,47,14.40
2016,06,15,14,48,14.50
2016,06,15,14,49,14.40
2016,06,15,14,50,14.50
2016,06,15,14,51,14.60
2016,06,15,14,52,14.60
2016,06,15,14,53,14.60
2016,06,15,14,54,14.60
2016,06,15,14,55,14.60
2016,06,15,14,56,14.50
2016,06,15,14,57,14.40
2016,06,15,14,58,14.40
2016,06,15,14,59,14.40
2016,06,15,15,00,14.40
2016,06,15,15,01,14.50
2016,06,15,15,02,14.60
2016,06,15,15,03,14.60
2016,06,15,15,04,14.70
2016,06,15,15,05,14.70
2016,06,15,15,06,14.80
2016,06,15,15,07,14.80
2016,06,15,15,08,14.80
2016,06,15,15,09,14.80
2016,06,15,15,10,14.90
2016,06,15,15,11,15.00
2016,06,15,15,12,15.00
2016,06,15,15,13,14.90
2016,06,15,15,14,14.90
2016,06,15,15,15,14.90
2016,06,15,15,16,14.90
2016,06,15,15,17,15.00
2016,06,15,15,18,15.10
2016,06,15,15,19,15.20
2016,06,15,15,20,15.20
2016,06,15,15,21,15.20
2016,06,15,15,22,15.10
2016,06,15,15,23,15.10
2016,06,15,15,24,15.20
2016,06,15,15,25,15.20
2016,06,15,15,26,15.10
2016,06,15,15,27,15.00
2016,06,15,15,28,15.00
2016,06,15,15,29,14.90
2016,06,15,15,30,14.90
2016,06,15,15,31,14.90
2016,06,15,15,32,14.80
2016,06,15,15,33,14.90
2016,06,15,15,34,14.90
2016,06,15,15,35,14.90
2016,06,15,15,36,14.90
2016,06,15,15,37,14.90
2016,06,15,15,38,14.80
2016,06,15,15,39,14.80
2016,06,15,15,40,14.80
2016,06,15,15,41,14.90
2016,06,15,15,42,14.90
2016,06,15,15,43,14.90
2016,06,15,15,44,14.90
2016,06,15,15,45,14.90
2016,06,15,15,46,14.90
2016,06,15,15,47,14.90
2016,06,15,15,48,14.90
2016,06,15,15,49,14.90
2016,06,15,15,50,14.90
2016,06,15,15,51,15.00
2016,06,15,15,52,15.00
2016,06,15,15,53,15.00
2016,06,15,15,54,15.10
2016,06,15,15,55,15.10
2016,06,15,15,56,15.10
2016,06,15,15,57,15.00
2016,06,15,15,58,15.00
2016,06,15,15,59,14.90
2016,06,15,16,00,14.90
2016,06,15,16,01,15.00
2016,06,15,16,02,15.00
2016,06,15,16,03,15.00
2016,06,15,16,04,15.10
2016,06,15,16,05,15.10
2016,06,15,16,06,15.10
2016,06,15,16,07,15.10
2016,06,15,16,08,15.10
2016,06,15,16,09,15.00
2016,06,15,16,10,14.90
2016,06,15,16,11,14.90
2016,06,15,16,12,14.90
2016,06,15,16,13,14.90
2016,06,15,16,14,14.90
2016,06,15,16,15,14.90
2016,06,15,16,16,15.00
2016,06,15,16,17,15.00
2016,06,15,16,18,15.10
2016,06,15,16,19,15.20
2016,06,15,16,20,15.20
2016,06,15,16,21,15.30
2016,06,15,16,22,15.40
2016,06,15,16,23,15.40
2016,06,15,16,24,15.50
2016,06,15,16,25,15.60
2016,06,15,16,26,15.60
2016,06,15,16,27,15.60
2016,06,15,16,28,15.50
2016,06,15,16,29,15.50
2016,06,15,16,30,15.40
2016,06,15,16,31,15.40
2016,06,15,16,32,15.40
2016,06,15,16,33,15.40
2016,06,15,16,34,15.50
2016,06,15,16,35,15.50
2016,06,15,16,36,15.50
2016,06,15,16,37,15.60
2016,06,15,16,38,15.60
2016,06,15,16,39,15.60
2016,06,15,16,40,15.70
2016,06,15,16,41,15.70
2016,06,15,16,42,15.70
2016,06,15,16,43,15.60
2016,06,15,16,44,15.60
2016,06,15,16,45,15.60
2016,06,15,16,46,15.70
2016,06,15,16,47,15.70
2016,06,15,16,48,15.70
2016,06,15,16,49,15.80
2016,06,15,16,50,15.80
2016,06,15,16,51,15.80
2016,06,15,16,52,15.80
2016,06,15,16,53,15.80
2016,06,15,16,54,15.80
2016,06,15,16,55,15.90
2016,06,15,16,56,15.90
2016,06,15,16,57,16.00
2016,06,15,16,58,16.00
2016,06,15,16,59,16.00
2016,06,15,17,00,15.90
2016,06,15,17,01,15.90
2016,06,15,17,02,15.90
2016,06,15,17,03,16.00
2016,06,15,17,04,16.10
2016,06,15,17,05,16.00
2016,06,15,17,06,16.00
2016,06,15,17,07,16.10
2016,06,15,17,08,16.10
2016,06,15,17,09,16.10
2016,06,15,17,10,16.00
2016,06,15,17,11,16.00
2016,06,15,17,12,16.00
2016,06,15,17,13,15.90
2016,06,15,17,14,15.80
2016,06,15,17,15,15.80
2016,06,15,17,16,15.90
2016,06,15,17,17,15.90
2016,06,15,17,18,15.90
2016,06,15,17,19,16.00
2016,06,15,17,20,16.00
2016,06,15,17,21,16.00
2016,06,15,17,22,16.10
2016,06,15,17,23,16.10
2016,06,15,17,24,16.20
2016,06,15,17,25,16.20
2016,06,15,17,26,16.30
2016,06,15,17,27,16.40
2016,06,15,17,28,16.40
2016,06,15,17,29,16.40
2016,06,15,17,30,16.50
2016,06,15,17,31,16.50
2016,06,15,17,32,16.50
2016,06,15,17,33,16.50
2016,06,15,17,34,16.50
2016,06,15,17,35,16.50
2016,06,15,17,36,16.40
2016,06,15,17,37,16.40
2016,06,15,17,38,16.30
2016,06,15,17,39,16.30
2016,06,15,17,40,16.30
2016,06,15,17,41,16.40